ARIANE 5 R/B, 54745

Orbit data source: Space-Track

ARIANE 5 R/B, 54745 is space debris in HEO originally from a launch on Tue, 13 Dec 2022 UTC launched from the French Guiana (FRGUI). Debris objects in space refer to the collection of defunct objects orbiting the Earth. Examples of debris include non-operational satellites, rocket bodies, and fragments generated from explosions, collisions, or faulty payload assembly.

Loading next visibility...
Identifier
54745, 2022-170E
Orbit
HEO
Country
Flag of FRFR
Related business
Manufacturer
ArianeGroup
Mission
Spacecraft
Bus & Motor
ESC-A, Unknown motor
Mass
~5,000 kg wet, ~5,000 kg dry
Launch date (UTC)
2022-12-13 (3 years ago)
Launch vehicle
Unknown
Launch site
French Guiana (FRGUI)
Object type
Payload
Rocket body
Debris
Shape & HBR
Cyl + 1 Nozzle, 3.5 m
Radar Cross Section
41.627 m², Large (>1 m²)

Expand to show TLE details & history
Last TLE update: 14 hours ago

TLE from 14 hours ago
0 ARIANE 5 R/B
1 54745U 22170E   25258.09492198  .00029344  00000-0  19879-2 0  9999
2 54745   6.0442 101.8199 6880466  38.6126 354.6209  2.83263764 25227
Epoch: 2025-09-15T02:16Z
TLE epoch observation values (Epoch: 2025-09-15T02:16:41.259Z)
Latitude
-0.00004°
Longitude
73.51048°
Altitude
833.824 km
Speed
9.572 km/s
True Right ascension
06h 47m 56s
True Declination
0° 00' 00"
Sunlit
Object was in daylight at epoch
Visualization orbit readout
Latitude
Unknown
Longitude
Unknown
Altitude
Unknown
Speed
Unknown
Apparent Right ascension
Unknown
Apparent Declination
Unknown
Sunlit
N/A
Visualization observer readout
Local Sidereal Time
08:40:10
Azimuth
Unknown
Elevation
Unknown
Doppler factor
Unknown
Orbital elements
Apogee altitude
29,248.084 km
Perigee altitude
205.639 km
Semi-major axis
21,104.999 km
Eccentricity
0.68805
Inclination
6.0442°
RAAN
101.8199°
Arg. of periapsis
38.6126°
True anomaly
322.25051°
Mean anomaly
354.6209°
Eccentric anomaly
343.27808°
Mean motion
0.70789 °/min
Orbital period
508.55 mins
BSTAR
0.0019879
Loading maneuver chart data...
Computing Atmospheric mass density...
Loading historical data...
Loading historical data...
Loading historical data...
Loading historical data...
Loading historical data...
Loading historical data...
Loading historical data...
Other satellites on launch #170 in the year 2022 (2022-12-13 UTC)

Documentation

Showing up to 5 results
|